• In United Kingdom
  • List of Countries
  • For 7 days
  • Water Temperature
  • Satellite Maps
  • Weather Map
  • Weather Widgets
  • user-avatar
    Login

    Hourly Weather Sherpur

    Today, 17 August, Friday

    Time Temperature Precipitation Wind Pressure Humidity
    00:00 +25°C° 0 mm 2 mps 610 mmHg 32%
    01:00 +25°C° 0 mm 2 mps 610 mmHg 34%
    02:00 +24°C° 0 mm 2 mps 609 mmHg 35%
    03:00 +23°C° 0 mm 2 mps 609 mmHg 34%
    04:00 +23°C° 0 mm 2 mps 609 mmHg 34%
    05:00 +21°C° 0 mm 2 mps 609 mmHg 35%
    06:00 +24°C° 0 mm 2 mps 609 mmHg 32%
    07:00 +25°C° 0 mm 2 mps 610 mmHg 28%
    08:00 +26°C° 0 mm 2 mps 611 mmHg 24%
    09:00 +28°C° 0 mm 2 mps 611 mmHg 22%
    10:00 +29°C° 0 mm 2 mps 611 mmHg 19%
    11:00 +30°C° 0 mm 3 mps 611 mmHg 17%
    12:00 +31°C° 0 mm 3 mps 611 mmHg 16%
    13:00 +33°C° 0 mm 3 mps 611 mmHg 14%
    14:00 +34°C° 0 mm 3 mps 611 mmHg 13%
    15:00 +34°C° 0 mm 3 mps 611 mmHg 13%
    16:00 +34°C° 0 mm 4 mps 610 mmHg 14%
    17:00 +34°C° 0 mm 5 mps 610 mmHg 14%
    18:00 +32°C° 0 mm 4 mps 610 mmHg 16%
    19:00 +30°C° 0 mm 4 mps 609 mmHg 19%
    20:00 +28°C° 0 mm 4 mps 609 mmHg 22%
    21:00 +27°C° 0 mm 3 mps 609 mmHg 23%
    22:00 +26°C° 0 mm 3 mps 609 mmHg 24%
    23:00 +25°C° 0 mm 3 mps 609 mmHg 26%

    Tomorrow, 18 August, Saturday

    Time Temperature Precipitation Wind Pressure Humidity
    00:00 +24°C° 0 mm 2 mps 608 mmHg 27%
    01:00 +24°C° 0 mm 2 mps 608 mmHg 28%
    02:00 +23°C° 0 mm 2 mps 608 mmHg 28%
    03:00 +21°C° 0 mm 2 mps 607 mmHg 29%
    04:00 +21°C° 0 mm 2 mps 607 mmHg 29%
    05:00 +20°C° 0 mm 2 mps 607 mmHg 30%
    06:00 +23°C° 0 mm 2 mps 608 mmHg 27%
    07:00 +24°C° 0 mm 2 mps 608 mmHg 24%
    08:00 +25°C° 0 mm 2 mps 609 mmHg 21%
    09:00 +27°C° 0 mm 2 mps 609 mmHg 19%
    10:00 +28°C° 0 mm 2 mps 609 mmHg 17%
    11:00 +29°C° 0 mm 2 mps 610 mmHg 14%
    12:00 +30°C° 0 mm 2 mps 610 mmHg 13%
    13:00 +31°C° 0 mm 2 mps 610 mmHg 12%
    14:00 +32°C° 0 mm 2 mps 610 mmHg 11%
    15:00 +34°C° 0 mm 3 mps 609 mmHg 11%
    16:00 +34°C° 0 mm 3 mps 609 mmHg 11%
    17:00 +34°C° 0 mm 3 mps 609 mmHg 11%
    18:00 +31°C° 0 mm 3 mps 609 mmHg 13%
    19:00 +29°C° 0 mm 3 mps 609 mmHg 16%
    20:00 +28°C° 0 mm 3 mps 608 mmHg 18%
    21:00 +27°C° 0 mm 3 mps 608 mmHg 20%
    22:00 +26°C° 0 mm 2 mps 608 mmHg 22%
    23:00 +25°C° 0 mm 2 mps 608 mmHg 23%

    Day after tomorrow, 19 August, Sunday

    Time Temperature Precipitation Wind Pressure Humidity
    00:00 +24°C° 0 mm 2 mps 608 mmHg 24%
    01:00 +24°C° 0 mm 2 mps 608 mmHg 25%
    02:00 +23°C° 0 mm 2 mps 607 mmHg 26%
    03:00 +23°C° 0 mm 2 mps 607 mmHg 26%
    04:00 +21°C° 0 mm 2 mps 607 mmHg 26%
    05:00 +21°C° 0 mm 2 mps 607 mmHg 27%
    06:00 +23°C° 0 mm 2 mps 608 mmHg 24%
    07:00 +24°C° 0 mm 2 mps 608 mmHg 21%
    08:00 +26°C° 0 mm 1 mps 609 mmHg 19%
    09:00 +27°C° 0 mm 1 mps 609 mmHg 17%
    10:00 +28°C° 0 mm 2 mps 610 mmHg 14%
    11:00 +30°C° 0 mm 2 mps 610 mmHg 12%
    12:00 +31°C° 0 mm 2 mps 610 mmHg 11%
    13:00 +32°C° 0 mm 2 mps 610 mmHg 10%
    14:00 +34°C° 0 mm 3 mps 610 mmHg 8%
    15:00 +34°C° 0 mm 3 mps 610 mmHg 8%
    16:00 +34°C° 0 mm 3 mps 610 mmHg 8%
    17:00 +34°C° 0 mm 4 mps 609 mmHg 8%
    18:00 +31°C° 0 mm 3 mps 609 mmHg 9%
    19:00 +30°C° 0 mm 3 mps 609 mmHg 11%
    20:00 +28°C° 0 mm 3 mps 609 mmHg 12%
    21:00 +27°C° 0 mm 2 mps 609 mmHg 13%
    22:00 +26°C° 0 mm 2 mps 609 mmHg 15%
    23:00 +25°C° 0 mm 2 mps 608 mmHg 16%

    20 August, Monday

    Time Temperature Precipitation Wind Pressure Humidity
    00:00 +24°C° 0 mm 2 mps 608 mmHg 16%
    01:00 +23°C° 0 mm 2 mps 608 mmHg 16%
    02:00 +23°C° 0 mm 2 mps 607 mmHg 16%
    03:00 +21°C° 0 mm 2 mps 607 mmHg 16%
    04:00 +21°C° 0 mm 2 mps 607 mmHg 16%
    05:00 +20°C° 0 mm 2 mps 607 mmHg 16%
    06:00 +23°C° 0 mm 2 mps 608 mmHg 14%
    07:00 +24°C° 0 mm 2 mps 609 mmHg 13%
    08:00 +26°C° 0 mm 2 mps 610 mmHg 11%
    09:00 +28°C° 0 mm 2 mps 611 mmHg 10%
    10:00 +29°C° 0 mm 2 mps 611 mmHg 8%
    11:00 +31°C° 0 mm 2 mps 612 mmHg 7%
    12:00 +32°C° 0 mm 2 mps 612 mmHg 6%
    13:00 +34°C° 0 mm 2 mps 612 mmHg 6%
    14:00 +35°C° 0 mm 2 mps 612 mmHg 5%
    15:00 +35°C° 0 mm 3 mps 612 mmHg 5%
    16:00 +35°C° 0 mm 3 mps 612 mmHg 5%
    17:00 +35°C° 0 mm 4 mps 612 mmHg 5%
    18:00 +33°C° 0 mm 3 mps 611 mmHg 7%
    19:00 +30°C° 0 mm 3 mps 611 mmHg 8%
    20:00 +28°C° 0 mm 3 mps 611 mmHg 9%
    21:00 +27°C° 0 mm 3 mps 611 mmHg 10%
    22:00 +26°C° 0 mm 3 mps 610 mmHg 11%
    23:00 +25°C° 0 mm 2 mps 610 mmHg 12%

    21 August, Tuesday

    Time Temperature Precipitation Wind Pressure Humidity
    00:00 +25°C° 0 mm 3 mps 610 mmHg 12%
    01:00 +24°C° 0 mm 3 mps 609 mmHg 13%
    02:00 +22°C° 0 mm 3 mps 609 mmHg 13%
    03:00 +22°C° 0 mm 3 mps 609 mmHg 14%
    04:00 +21°C° 0 mm 3 mps 609 mmHg 14%
    05:00 +21°C° 0 mm 3 mps 609 mmHg 15%
    06:00 +22°C° 0 mm 3 mps 609 mmHg 14%
    07:00 +25°C° 0 mm 3 mps 610 mmHg 13%
    08:00 +26°C° 0 mm 3 mps 611 mmHg 12%
    09:00 +28°C° 0 mm 3 mps 611 mmHg 11%
    10:00 +30°C° 0 mm 4 mps 612 mmHg 10%
    11:00 +33°C° 0 mm 4 mps 612 mmHg 8%
    12:00 +34°C° 0 mm 4 mps 612 mmHg 8%
    13:00 +35°C° 0 mm 5 mps 612 mmHg 8%
    14:00 +36°C° 0 mm 5 mps 612 mmHg 7%
    15:00 +35°C° 0 mm 6 mps 612 mmHg 8%
    16:00 +35°C° 0 mm 6 mps 611 mmHg 8%
    17:00 +34°C° 0 mm 6 mps 611 mmHg 8%
    18:00 +32°C° 0 mm 5 mps 611 mmHg 10%
    19:00 +29°C° 0 mm 5 mps 610 mmHg 12%
    20:00 +27°C° 0 mm 4 mps 610 mmHg 13%
    21:00 +26°C° 0 mm 3 mps 610 mmHg 14%
    22:00 +25°C° 0 mm 3 mps 610 mmHg 15%
    23:00 +24°C° 0 mm 3 mps 610 mmHg 17%

    22 August, Wednesday

    Time Temperature Precipitation Wind Pressure Humidity
    00:00 +22°C° 0 mm 3 mps 609 mmHg 18%
    01:00 +22°C° 0 mm 3 mps 609 mmHg 19%
    02:00 +21°C° 0 mm 3 mps 608 mmHg 21%
    03:00 +21°C° 0 mm 3 mps 608 mmHg 23%
    04:00 +20°C° 0 mm 3 mps 608 mmHg 24%
    05:00 +20°C° 0 mm 3 mps 608 mmHg 26%
    06:00 +21°C° 0 mm 3 mps 609 mmHg 26%
    07:00 +22°C° 0 mm 3 mps 609 mmHg 25%
    08:00 +25°C° 0 mm 3 mps 610 mmHg 24%
    09:00 +26°C° 0 mm 3 mps 610 mmHg 21%
    10:00 +28°C° 0 mm 3 mps 610 mmHg 19%
    11:00 +30°C° 0 mm 3 mps 611 mmHg 16%
    12:00 +31°C° 0 mm 3 mps 611 mmHg 15%
    13:00 +33°C° 0 mm 3 mps 611 mmHg 13%
    14:00 +34°C° 0 mm 3 mps 610 mmHg 12%
    15:00 +34°C° 0 mm 4 mps 610 mmHg 12%
    16:00 +33°C° 0 mm 4 mps 610 mmHg 12%
    17:00 +33°C° 0 mm 4 mps 610 mmHg 12%
    18:00 +30°C° 0 mm 4 mps 610 mmHg 15%
    19:00 +29°C° 0 mm 4 mps 609 mmHg 18%
    20:00 +27°C° 0 mm 3 mps 609 mmHg 21%
    21:00 +26°C° 0 mm 3 mps 609 mmHg 23%
    22:00 +25°C° 0 mm 3 mps 609 mmHg 25%
    23:00 +24°C° 0 mm 2 mps 609 mmHg 27%
    Show more